COSMOS 2251 DEB, 37483

Orbit data source: Space-Track

COSMOS 2251 DEB, 37483 is space debris in LEO originally from a launch on Wed, 16 Jun 1993 UTC launched from the Plesetsk Missile And Space Complex (PKMTR). The debris from Iridium 33, an American commercial communications satellite, has been tracked extensively since its accidental collision with the defunct Russian satellite Cosmos 2251 in 2009. This event, occurring at high speed in low Earth orbit (LEO), generated thousands of pieces of space debris, significantly increasing the risk of further collisions. The Iridium 33 debris cloud has impacted space traffic management and orbital debris mitigation strategies, making it a subject of ongoing study in space situational awareness.

Loading next visibility...
Identifier
37483, 1993-036BLL
Orbit
LEO
Country
Flag of CISCIS
Related business
Manufacturer
Unknown
Mission
Spacecraft
Bus & Motor
Unknown
Mass
Unknown
Launch date (UTC)
1993-06-16 (33 years ago)
Launch vehicle
Unknown
Launch site
Plesetsk Missile And Space Complex (PKMTR)
Object type
Payload
Rocket body
Debris
Shape & HBR
Unknown shape, 0.1 m
Radar Cross Section
Small (<0.1 m²)

Expand to show TLE details & history
Last TLE update: 19 hours ago

TLE from 19 hours ago
0 COSMOS 2251 DEB
1 37483U 93036BLL 26121.61802539  .00000654  00000-0  19050-3 0  9995
2 37483  73.9741 242.3024 0091771  56.7768 304.2144 14.43808540672986
Epoch: 2026-05-01T14:49Z
TLE epoch observation values (Epoch: 2026-05-01T14:49:57.393Z)
Latitude
0.00002°
Longitude
160.26557°
Altitude
712.205 km
Speed
7.519 km/s
True Right ascension
16h 09m 12s
True Declination
0° 00' 00"
Sunlit
Object was in full shadow at epoch
Visualization orbit readout
Latitude
Unknown
Longitude
Unknown
Altitude
Unknown
Speed
Unknown
Apparent Right ascension
Unknown
Apparent Declination
Unknown
Sunlit
N/A
Visualization observer readout
Local Sidereal Time
18:00:15
Azimuth
Unknown
Elevation
Unknown
Doppler factor
Unknown
Orbital elements
Apogee altitude
808.92 km
Perigee altitude
678.207 km
Semi-major axis
7,121.7 km
Eccentricity
0.00918
Inclination
73.9741°
RAAN
242.3024°
Arg. of periapsis
56.7768°
True anomaly
303.33917°
Mean anomaly
304.2144°
Eccentric anomaly
303.77735°
Mean motion
3.61133 °/min
Orbital period
99.69 mins
BSTAR
0.0001905
Loading maneuver chart data...
Computing Atmospheric mass density...

Documentation

Showing up to 5 results
|